{"data":{"norad_id":49307,"epoch":"2026-05-25T03:05:37.131072Z","epoch_age_seconds":74594,"freshness":"FRESH","line1":"1 49307U 21090AE  26145.12890198 -.00000048  00000+0 -15046-3 0  9993","line2":"2 49307  87.9176 279.0375 0002184  97.9897 262.1484 13.20771660226785","mean_motion":13.2077166,"eccentricity":0.0002184,"inclination_deg":87.9176,"raan_deg":279.0375,"arg_perigee_deg":97.9897,"mean_anomaly_deg":262.1484,"bstar":-0.00015046,"rev_number":22678,"period_min":109.02717279685,"perigee_km":1180.1228717589,"apogee_km":1183.4250408646,"semimajor_km":7559.9109563117,"source":"CELESTRAK","updated_at":"2026-05-25T13:38:22.525630Z"}}